sat.trackr.live / text

‹ back to catalog

UNKNOWN

NORAD 82729

UNKNOWN UNKNOWN UNKNOWN

§ Identity

Operator
Country
Launch date
Launch site
Launch vehicle
Mass (kg)
RCS (m²)

External: N2YO · Heavens-Above

§ Orbital elements

Epoch: 2026-09-14T17:53:34.244736Z

Period
118.22 min
Inclination
67.9714°
Eccentricity
0.0836991
Mean motion
12.18073125 rev/d
Perigee alt
933.1 km
Apogee alt
2,268.8 km
Semi-major
7,979.1 km
B*
2.5728e-3
RAAN
28.4550°
Arg perigee
181.8269°
Mean anomaly
177.9614°
Rev number
56,881

§ Raw data

UNKNOWN1 82729U          26257.74553524  .00000748  00000+0  25728-2 0  99992 82729  67.9714  28.4550 0836991 181.8269 177.9614 12.18073125568812

JSON: /api/v1/satellites/82729 · /tle

For live sub-satellite position, see the globe view (requires WebGL).

§ Visibility from observer

Set your observer location to see the next 7 days of passes ≥ 10°. The values pass through the URL so the page stays shareable.

No JS? Fill the form by hand. The geolocation button needs JavaScript.